GFSGBSN_925_thetae_159.txt.gz
Theta_e
322 322 323 324 326 325 324 325 324 322 321 322 322 321 318 316 314 314 314 317 318 317 318 317 312 306 307 310 314 318 310 308 308 308 311 311 310 311 312 310 310 311 312 311 311 311 311
318 320 320 320 321 323 325 324 324 325 324 322 322 322 322 321 319 317 317 317 319 319 317 318 311 304 306 315 316 314 310 307 309 310 310 309 309 310 310 311 310 310 310 309 310 311 310
312 315 316 318 319 319 321 322 324 325 324 324 323 322 322 322 321 321 320 321 320 318 319 318 309 302 307 310 315 312 307 308 309 310 308 309 309 309 309 310 309 309 310 309 310 311 311
309 311 312 314 316 317 318 318 321 323 324 325 324 323 322 322 323 323 322 322 321 320 319 318 308 303 306 317 315 315 314 312 310 309 309 310 309 308 308 308 307 309 309 310 310 309 309
305 307 309 310 312 314 315 317 317 317 320 323 324 324 324 324 323 323 322 322 319 317 319 314 305 308 314 317 314 314 315 312 310 309 310 309 308 307 306 306 307 308 309 309 309 308 307
306 305 305 308 310 313 314 315 317 317 316 319 322 323 324 323 323 323 321 321 321 319 309 306 306 310 313 315 315 312 311 310 308 309 308 307 304 305 304 305 309 310 310 308 309 308 307
304 306 306 303 305 310 313 315 316 317 316 315 321 322 322 323 322 322 321 320 314 310 305 315 315 315 314 314 313 309 309 308 308 307 306 306 305 305 305 306 308 309 307 306 306 305 307
303 303 306 306 303 306 311 313 314 316 313 315 317 321 321 321 322 321 319 315 311 304 308 307 308 311 314 314 314 313 308 308 307 306 306 306 306 306 306 307 308 308 306 306 305 304 305
303 303 303 305 305 303 309 313 315 315 314 314 315 316 319 320 319 317 316 316 305 309 311 312 308 311 312 312 314 313 306 305 306 306 305 305 307 308 308 308 307 306 305 306 306 304 301
303 303 302 303 305 303 306 310 312 312 312 315 314 314 316 317 314 314 313 317 309 317 322 322 317 315 315 313 314 314 308 306 305 305 304 305 306 307 307 307 304 305 306 305 304 303 303
302 301 303 302 303 304 304 308 309 309 310 311 313 314 316 316 314 312 317 318 312 316 326 318 320 316 315 316 313 312 307 305 305 305 304 306 306 306 306 305 304 304 304 304 303 301 300
301 302 302 302 303 304 303 305 307 308 308 308 309 312 314 314 314 314 317 317 315 321 325 319 314 312 317 316 312 307 307 305 304 305 305 305 304 304 304 303 304 302 302 301 299 299 300
300 301 303 302 302 303 304 302 304 306 306 306 307 309 311 312 312 315 315 314 321 322 318 319 309 309 317 317 313 308 306 306 305 305 305 305 304 303 303 303 302 301 301 302 302 301 302
299 300 302 302 301 301 303 303 302 303 304 305 305 306 307 311 313 313 312 316 319 314 318 318 309 308 318 313 314 307 306 309 302 305 304 306 306 302 302 303 303 301 302 304 305 305 304
299 299 299 301 300 301 302 303 302 303 304 304 305 305 306 310 311 310 314 318 316 318 314 317 310 309 309 312 313 309 304 309 306 304 308 305 307 302 302 302 303 302 303 303 304 303 303
299 299 299 300 299 299 300 302 302 302 302 304 304 305 306 308 310 308 313 316 316 315 316 315 318 311 309 309 310 313 304 305 306 304 305 306 304 302 302 302 302 303 302 303 303 306 305
298 298 297 299 299 298 300 301 302 301 300 302 303 304 305 307 306 308 312 309 314 314 314 316 319 319 315 309 310 309 307 306 305 305 305 305 304 303 302 302 302 301 301 302 303 305 307
298 298 298 297 299 298 299 299 301 302 300 301 302 304 303 306 307 304 308 311 311 313 313 314 317 319 319 314 310 309 309 307 305 305 304 305 305 303 302 303 301 300 301 303 303 304 304
297 297 295 297 297 297 298 298 299 299 301 301 300 297 301 302 308 304 307 309 310 312 313 316 315 317 316 319 317 311 308 306 303 304 304 304 304 304 302 302 302 301 302 303 302 302 307
297 297 296 297 296 296 297 298 298 298 299 300 296 302 298 298 302 306 307 309 311 309 310 313 315 316 317 314 315 312 308 305 303 304 308 306 304 304 306 305 302 302 301 304 303 304 303
296 295 295 296 296 298 297 296 297 297 298 300 299 299 298 303 302 303 306 307 309 312 310 310 311 314 315 315 313 312 306 304 302 303 302 303 304 302 302 302 302 302 302 304 304 303 304
296 296 295 295 295 297 298 297 296 297 297 300 298 300 300 298 300 304 305 306 308 307 309 313 312 310 313 311 312 311 308 305 304 302 301 301 302 301 302 302 303 302 302 301 302 303 302
295 296 296 296 296 297 297 297 296 296 297 297 297 298 300 300 300 304 305 304 305 307 309 308 308 311 313 312 311 312 311 312 304 303 302 302 303 302 303 303 302 302 301 301 301 302 302
295 295 295 295 295 296 297 296 295 296 297 297 297 298 300 300 301 303 303 303 304 305 306 310 308 309 309 304 304 305 306 308 307 302 301 303 304 303 306 303 305 303 301 301 301 303 301
294 294 295 295 296 296 296 296 295 295 296 298 298 298 300 299 302 302 302 302 302 303 306 308 309 307 304 305 305 307 306 305 304 302 301 301 303 305 306 304 303 302 303 302 302 303 302
294 294 294 295 295 295 295 295 295 295 296 298 297 297 300 300 300 302 302 301 304 306 306 307 307 306 305 304 307 310 308 308 306 304 302 301 302 305 304 304 303 301 302 302 302 302 301
294 294 293 294 295 295 295 295 295 295 296 298 297 297 299 300 298 301 304 303 302 304 305 308 307 306 306 306 309 308 307 305 306 305 302 303 303 300 303 301 302 302 302 301 304 302 300
293 293 293 293 293 294 294 294 295 294 296 297 297 298 298 300 300 301 302 304 305 305 307 307 306 305 304 308 307 305 306 304 302 302 300 300 302 298 298 296 302 302 302 303 300 298 297
292 293 293 293 293 293 294 294 294 294 295 297 295 297 298 299 299 300 300 299 299 300 304 306 304 303 302 301 301 302 302 299 301 303 299 300 298 299 299 300 300 302 301 299 298 297 296

GFSGBSN_925_thetae_162.txt.gz
Theta_e
321 322 323 324 325 325 325 325 324 324 323 321 321 321 322 321 318 317 315 317 320 321 320 319 318 315 310 311 315 317 314 308 308 308 311 310 309 309 311 310 310 311 311 310 310 309 311
316 318 320 321 321 322 324 325 324 324 324 324 323 322 322 322 322 321 318 317 319 321 320 319 318 312 307 317 316 314 312 308 308 309 309 308 308 308 309 310 310 309 309 308 309 310 310
309 312 315 317 319 319 319 320 322 323 324 324 323 324 323 322 322 321 321 320 320 321 319 318 316 305 306 315 316 315 311 307 309 309 308 309 308 308 308 309 307 308 309 308 308 309 309
305 307 310 311 313 315 316 317 318 319 322 323 324 325 324 324 322 322 322 320 318 321 320 319 313 306 309 318 316 317 315 309 311 311 308 309 308 307 308 307 306 308 307 309 310 309 309
306 305 305 308 309 310 313 314 315 317 317 318 322 323 323 324 323 323 322 321 321 321 320 318 308 308 316 317 314 314 314 315 313 309 309 309 307 305 305 305 305 306 308 308 308 307 307
304 305 305 303 306 308 310 313 314 315 316 317 316 320 323 323 323 323 322 321 321 322 314 308 305 311 313 314 313 312 312 313 307 308 308 306 302 304 303 304 309 308 309 308 308 306 307
304 303 305 306 305 303 307 310 313 315 315 315 316 315 321 322 322 322 321 321 317 313 305 315 316 315 316 315 314 308 308 308 307 306 307 305 305 305 304 305 307 308 306 306 305 304 305
303 303 303 303 306 306 302 307 311 313 314 314 313 314 319 321 321 320 319 319 317 306 310 308 308 310 313 313 315 314 308 307 306 306 305 305 305 305 305 306 308 308 308 305 305 303 305
303 302 303 302 303 304 305 303 310 313 315 315 314 314 316 319 319 317 318 318 308 308 316 315 308 311 313 312 316 315 305 305 306 305 305 305 307 306 306 307 307 305 304 305 306 303 301
302 302 302 303 302 303 305 303 308 312 313 313 312 313 314 317 315 314 315 319 311 315 323 320 315 311 312 312 315 314 307 305 305 305 304 305 305 306 306 308 306 306 304 304 304 302 303
302 302 301 301 302 302 303 304 306 310 310 309 310 313 314 314 314 313 317 318 313 315 324 315 318 314 313 316 314 314 306 305 305 304 304 306 305 305 306 306 303 305 304 303 303 300 300
302 302 302 301 301 301 302 304 304 307 309 309 309 310 313 313 314 315 316 317 314 321 320 317 316 317 316 315 311 306 306 304 304 304 304 304 304 303 305 302 303 301 301 300 298 298 301
300 301 301 300 301 302 302 304 303 305 307 307 307 308 311 312 312 315 316 314 321 322 316 317 310 315 317 317 316 308 308 307 308 306 305 304 304 303 302 302 302 301 302 304 304 302 304
299 300 300 300 300 302 302 302 304 302 304 306 306 306 308 311 312 314 313 316 320 318 317 315 308 309 318 316 316 306 307 310 305 305 305 307 306 302 301 303 302 301 303 306 309 304 303
298 299 300 299 298 301 301 301 302 303 302 303 305 306 306 306 311 312 313 317 317 315 313 314 313 309 310 313 317 306 306 309 310 303 309 306 307 302 301 302 303 302 302 304 305 302 303
297 298 299 299 298 298 301 300 301 303 302 303 305 305 304 305 307 309 312 315 313 312 314 314 314 311 310 309 312 315 307 306 308 305 305 306 306 302 301 301 301 303 303 304 304 306 305
297 297 298 299 299 298 298 299 299 301 302 303 304 303 303 304 306 309 311 313 312 311 312 315 316 315 313 309 310 312 315 309 307 304 305 305 305 303 302 301 301 302 302 302 303 304 306
296 296 297 298 298 298 298 299 299 300 302 301 301 302 302 306 306 305 308 311 311 312 312 314 314 318 317 313 309 309 312 308 305 303 305 305 305 303 302 302 300 301 302 304 306 305 304
296 296 297 297 297 298 298 299 298 300 301 300 300 296 300 302 306 307 307 309 310 310 312 314 316 315 317 318 316 312 309 305 304 304 304 304 306 306 303 302 301 301 301 302 302 301 305
296 296 297 297 296 297 298 298 298 299 300 300 298 301 298 299 301 306 305 308 310 309 310 312 314 314 316 318 316 317 312 305 303 304 307 306 306 306 309 307 303 302 301 301 301 302 302
296 296 296 297 297 297 297 297 296 298 299 297 294 299 298 302 301 303 305 307 308 308 310 309 312 313 313 317 314 314 307 304 303 303 302 306 307 304 303 303 302 302 301 302 301 302 303
295 296 295 295 296 296 296 297 296 297 298 300 298 299 299 298 299 302 304 304 308 308 309 310 310 309 313 313 312 312 309 307 306 302 302 302 307 303 303 302 303 302 301 302 302 302 300
296 295 295 295 296 296 296 295 296 296 297 297 294 297 295 297 298 302 303 302 304 305 306 306 308 309 311 311 311 310 310 310 307 308 304 304 305 304 305 302 302 303 301 300 300 301 302
295 296 296 295 294 295 295 296 296 296 297 296 293 298 299 297 300 301 301 302 302 303 304 306 306 307 306 305 305 306 309 309 312 311 304 304 304 304 307 303 306 304 301 300 300 300 300
295 294 295 295 295 294 294 295 295 295 296 297 296 294 298 293 298 300 301 301 302 303 304 304 304 306 302 303 304 306 307 306 306 308 304 304 304 308 309 308 306 304 301 301 301 301 301
294 294 294 295 295 295 295 294 294 294 295 296 297 297 295 298 295 301 301 301 303 302 301 302 304 304 304 305 306 309 308 308 307 305 303 304 304 306 306 308 308 303 301 302 301 301 300
294 294 294 293 294 295 295 294 295 294 294 296 297 297 296 297 298 300 298 302 301 303 303 303 304 307 305 306 308 309 308 306 306 305 302 303 303 305 307 305 304 301 301 300 303 302 299
294 294 294 293 294 293 294 294 294 293 294 295 296 297 297 297 296 298 300 301 300 301 303 302 306 305 303 308 308 307 308 304 305 304 305 303 303 302 304 306 306 301 301 303 300 297 297
293 294 294 293 293 293 293 293 294 294 295 295 296 296 296 297 298 299 299 299 301 300 299 301 304 304 304 307 303 303 304 303 305 306 299 305 302 302 303 303 300 301 300 298 297 297 295

GFSGBSN_925_thetae_165.txt.gz
Theta_e
319 322 322 323 325 326 326 325 324 323 323 323 322 321 321 322 322 321 320 318 318 320 321 320 320 319 315 317 319 318 313 309 307 309 309 309 310 311 313 311 311 313 312 311 311 310 312
313 316 318 320 321 321 322 323 324 324 324 323 323 323 322 322 322 322 322 321 320 320 320 320 319 318 309 322 318 316 313 309 309 309 308 308 309 309 310 310 312 310 310 310 311 312 311
306 308 311 314 316 317 319 319 320 322 323 324 324 324 323 323 322 322 322 322 322 322 321 320 318 313 307 319 319 315 316 309 309 309 308 308 308 310 309 311 309 309 311 310 311 311 312
306 305 305 308 310 312 314 315 317 318 319 321 322 323 324 323 323 322 322 322 323 322 322 320 319 310 314 319 318 318 317 314 308 311 309 308 308 308 309 308 309 310 309 314 311 310 310
306 306 305 304 305 308 309 310 313 314 316 317 317 319 322 323 323 323 322 322 322 321 321 320 311 308 318 317 315 314 313 314 313 311 308 308 307 307 308 310 311 309 315 311 311 308 308
305 304 304 306 305 303 305 308 310 312 314 314 315 316 317 321 322 322 321 321 321 321 317 312 306 313 315 316 313 312 311 312 306 307 308 308 306 308 307 310 319 314 311 310 311 308 307
303 303 303 303 305 306 305 302 306 310 312 313 314 314 315 318 321 321 320 320 317 316 307 320 316 315 316 315 314 308 308 308 307 308 310 306 309 310 310 308 309 309 309 307 307 305 306
305 304 303 303 303 303 305 305 302 308 312 312 314 313 314 315 320 320 319 319 318 310 320 310 310 310 313 313 317 314 308 309 308 310 307 308 309 309 306 306 308 309 311 309 306 305 306
303 303 302 301 302 302 303 304 304 305 311 314 314 314 312 315 318 316 318 319 315 313 318 317 312 315 316 313 318 319 307 307 308 308 307 310 310 306 307 308 309 308 310 307 308 305 303
302 302 302 301 301 302 302 302 304 303 310 313 314 311 312 313 315 315 316 319 311 316 324 321 317 314 311 313 317 315 308 308 306 309 306 308 307 307 308 308 309 310 306 305 306 307 309
301 301 302 302 300 300 301 302 303 304 309 311 311 309 309 312 314 314 316 319 314 316 321 316 317 312 311 318 315 315 305 306 307 306 307 311 306 306 308 308 308 310 305 305 304 305 304
300 301 301 302 301 300 301 301 302 304 304 309 309 308 311 314 313 315 316 311 316 320 320 316 317 317 316 315 312 307 308 305 305 305 304 308 304 305 307 303 306 302 304 303 302 303 307
298 299 300 301 301 299 300 301 302 303 304 307 308 308 309 311 312 314 315 314 320 321 315 316 315 317 318 318 318 310 312 309 310 310 308 305 305 303 303 304 302 303 307 308 307 306 309
297 298 299 300 301 299 298 302 302 303 304 304 307 307 307 310 311 313 313 316 319 315 319 313 308 314 320 318 319 308 311 314 310 308 309 312 313 305 303 306 305 304 308 311 311 309 309
298 298 298 299 299 299 299 300 301 301 303 303 304 306 306 306 309 311 312 316 316 316 315 316 314 312 312 315 319 307 310 312 313 307 316 311 312 302 302 303 305 303 305 307 307 304 306
296 297 298 298 299 298 297 297 300 301 301 303 303 304 305 305 306 308 311 314 313 312 313 313 317 316 312 311 316 313 308 308 311 309 308 309 310 302 301 302 303 305 305 306 307 310 309
296 296 297 297 297 298 298 297 298 300 301 303 303 304 303 304 305 306 309 310 311 311 311 313 314 314 313 311 313 315 318 312 308 309 309 307 308 303 302 303 305 304 305 305 307 309 310
296 296 296 297 297 298 298 297 298 298 299 301 302 303 302 305 305 305 307 310 308 310 310 310 314 315 316 314 312 313 315 315 306 306 308 308 308 306 303 302 302 304 306 309 315 308 308
295 296 295 296 296 297 297 297 296 298 299 301 299 297 301 304 305 304 304 308 310 311 311 312 312 314 316 317 318 313 311 306 304 306 307 307 309 312 310 305 302 303 303 305 306 307 308
295 295 295 296 296 297 297 298 298 297 298 300 297 301 297 300 302 303 303 306 309 309 310 310 313 314 316 316 316 318 316 306 305 306 311 308 309 312 317 312 307 303 303 304 305 307 307
294 294 295 296 296 297 297 297 297 298 298 300 294 299 300 302 302 303 304 304 305 308 309 310 311 313 314 316 316 317 314 309 306 305 305 308 311 310 311 310 306 304 304 303 304 305 306
295 296 295 296 296 297 297 297 297 297 298 300 297 299 297 298 300 302 303 306 305 305 307 310 312 311 313 313 312 312 309 309 308 307 304 305 311 308 309 309 304 303 303 303 303 304 303
295 295 295 295 296 295 296 296 297 296 297 295 293 296 299 300 299 301 302 303 303 305 306 306 309 310 310 312 311 311 310 310 309 310 307 307 308 308 311 305 303 307 307 302 303 304 305
295 295 296 295 295 296 296 295 294 295 295 293 293 297 299 300 300 301 301 302 302 302 305 305 307 307 306 306 307 308 308 309 311 309 308 306 308 310 312 305 312 310 303 304 304 303 302
295 294 294 295 294 295 295 295 295 294 295 295 295 296 298 299 299 299 300 301 301 302 303 303 304 305 304 305 308 308 308 308 309 310 311 309 307 311 311 310 309 308 303 303 303 305 302
294 294 293 294 295 294 295 295 294 294 294 296 296 296 295 298 299 299 300 301 303 303 303 303 303 303 304 305 307 307 308 308 309 307 307 307 306 311 309 312 313 308 302 302 303 305 304
293 293 295 295 295 295 295 294 294 294 294 296 296 296 296 297 297 298 300 301 302 303 303 301 303 305 305 306 307 306 307 307 309 307 305 306 306 312 310 310 308 305 302 302 305 310 301
293 293 294 294 294 294 295 294 293 294 293 296 295 296 296 298 297 298 299 301 300 301 303 302 305 305 305 306 307 309 309 307 306 305 304 306 307 307 309 310 311 303 302 305 306 299 299
293 294 294 294 293 294 293 293 293 293 293 294 295 296 296 297 296 297 297 297 298 299 300 301 301 304 305 306 306 305 308 306 305 308 301 307 307 307 307 308 302 302 302 300 300 300 298

GFSGBSN_925_thetae_168.txt.gz
Theta_e
317 319 321 323 323 325 326 326 325 324 323 323 323 322 321 321 321 322 322 322 321 321 322 322 322 321 318 325 325 318 314 311 308 311 312 314 316 318 321 318 317 319 318 317 316 316 317
312 313 316 317 320 320 321 323 323 324 324 324 323 322 323 323 322 322 322 322 322 323 322 322 322 321 319 327 320 317 316 311 311 312 312 313 314 315 317 317 318 316 316 317 317 317 316
307 307 309 312 316 316 317 319 319 319 321 322 324 324 323 322 322 323 323 322 322 322 322 322 321 316 319 325 318 315 315 313 310 311 312 311 311 314 315 317 314 314 316 317 317 317 317
306 306 305 305 308 310 312 314 316 317 318 318 320 322 322 323 323 322 322 323 322 322 322 322 321 314 324 320 317 318 318 318 310 311 311 310 310 313 314 314 314 316 316 322 318 317 316
306 306 306 305 304 305 307 308 310 312 313 315 317 317 318 320 322 323 323 323 322 322 322 321 315 316 325 319 319 315 314 318 312 314 310 309 311 313 313 317 321 320 326 322 319 314 315
303 305 304 304 305 305 303 304 306 308 310 311 313 314 315 316 318 321 322 321 321 321 316 311 310 320 322 323 315 312 313 314 314 312 311 312 312 315 316 319 327 326 323 322 322 314 313
306 304 303 303 303 304 306 305 302 304 309 310 312 313 313 314 315 321 320 320 321 325 316 327 324 322 320 318 317 315 312 312 311 312 315 313 315 318 320 320 321 319 321 321 319 312 312
305 305 304 303 303 303 303 304 305 303 306 311 312 314 312 313 314 319 319 320 320 311 324 322 319 320 318 318 321 320 310 315 315 317 314 314 317 318 316 313 314 317 319 320 315 310 310
301 303 303 303 302 301 303 302 303 305 304 311 313 314 312 312 314 318 318 320 317 314 323 323 322 323 323 318 323 324 315 316 316 319 316 318 318 312 313 313 313 315 317 318 316 311 310
299 300 301 302 302 301 301 302 302 304 303 310 314 314 312 312 313 315 318 319 314 317 324 319 320 320 319 319 321 319 320 318 315 319 318 316 316 312 313 315 314 317 314 314 314 313 317
300 299 300 302 302 301 300 300 302 302 304 309 311 312 311 310 315 316 317 319 315 318 319 316 318 315 317 320 319 318 319 319 318 315 314 317 313 313 314 314 313 316 310 312 312 313 313
300 299 300 300 302 301 300 299 301 301 303 304 310 310 312 311 312 315 316 316 317 321 320 315 319 319 319 320 319 314 317 315 315 317 312 317 310 312 315 314 312 309 309 309 309 311 314
298 298 298 300 300 300 300 298 300 301 302 304 307 308 310 311 312 313 314 314 319 319 312 314 320 320 320 321 321 315 318 317 317 316 317 314 312 308 308 309 310 311 312 316 315 314 317
298 298 298 299 300 300 299 298 299 302 302 304 304 307 308 309 309 312 313 316 318 314 312 315 314 319 322 321 321 315 319 319 317 316 319 319 318 312 308 312 312 312 313 319 321 322 320
297 298 298 298 299 299 299 299 298 301 302 303 303 304 307 307 309 310 313 315 316 312 314 315 316 317 319 319 321 319 317 320 319 315 318 319 320 310 308 310 310 310 311 314 315 310 313
296 297 297 298 298 298 298 297 298 298 301 301 304 304 305 306 306 308 312 313 313 310 311 314 316 316 319 317 320 320 320 316 317 317 315 318 320 308 307 306 307 310 311 311 312 316 317
297 297 296 296 297 297 297 298 298 297 300 301 303 304 305 305 305 307 309 310 310 311 310 310 314 317 318 317 316 319 319 316 313 315 316 316 315 309 305 307 312 308 310 309 312 314 317
296 296 296 296 296 297 298 298 297 297 298 300 303 303 301 305 306 306 308 307 308 310 309 312 312 313 315 316 316 316 316 317 311 312 314 314 314 317 313 306 305 308 310 311 315 314 311
295 295 296 296 296 296 296 296 297 297 298 301 302 301 302 302 307 306 305 306 306 308 308 310 312 312 312 314 316 315 315 312 310 310 312 311 312 318 317 313 308 305 307 309 312 311 312
296 295 295 296 296 296 297 296 296 297 296 300 299 303 300 303 298 306 306 305 304 305 309 311 311 311 312 313 314 315 315 312 307 307 309 309 313 315 319 316 314 311 308 307 309 311 310
294 294 294 294 296 296 297 297 297 297 297 299 297 302 302 305 304 303 306 305 305 304 306 309 312 313 314 314 313 314 314 315 311 308 308 311 312 312 313 314 314 314 310 307 307 308 313
294 294 294 295 295 296 297 296 296 297 296 299 299 301 300 303 302 304 305 307 305 304 304 307 308 312 312 314 315 317 315 312 312 310 309 308 315 312 314 314 313 314 314 314 314 310 310
294 294 295 295 296 296 296 296 296 296 297 298 296 294 302 302 302 303 304 304 305 304 304 304 305 309 311 311 311 312 312 312 311 311 311 310 314 314 315 313 312 315 315 313 314 314 312
295 295 295 295 295 296 296 296 295 296 296 297 294 298 300 303 303 302 302 302 303 302 305 304 305 307 308 308 309 309 310 311 311 310 310 312 313 314 315 313 314 311 310 311 311 308 307
295 295 295 296 295 296 296 296 296 296 295 296 294 295 298 302 302 301 303 302 303 303 304 304 303 305 305 307 309 310 311 309 310 310 311 309 312 315 314 314 312 312 310 308 309 311 310
295 295 295 294 294 294 294 295 295 295 294 293 293 293 294 300 301 301 302 301 302 303 303 303 303 303 305 306 310 308 306 304 304 309 309 311 311 312 314 315 314 312 310 307 306 309 309
295 294 295 294 294 293 293 293 294 294 294 293 294 294 296 298 299 300 301 302 302 302 303 302 303 305 304 306 308 307 305 303 304 309 308 310 310 312 313 315 314 311 305 305 309 313 308
294 294 294 294 294 295 295 294 293 294 294 295 295 295 296 298 298 299 299 301 302 303 303 303 304 305 306 305 306 305 305 304 306 306 310 311 310 310 313 316 315 310 306 307 310 307 307
293 293 293 293 294 294 293 293 293 293 294 294 296 296 297 297 298 298 298 299 300 301 303 302 303 301 304 306 306 305 307 310 307 308 308 312 315 315 312 313 308 307 307 306 306 307 306

GFSGBSN_925_thetae_171.txt.gz
Theta_e
317 318 320 322 323 325 326 326 326 324 323 323 323 323 323 322 322 321 322 322 323 323 324 324 324 324 322 327 328 320 320 315 311 314 317 320 322 324 324 324 323 322 323 322 321 320 322
310 314 316 317 319 320 320 321 324 324 325 325 324 323 322 322 323 323 323 323 322 323 323 323 323 323 324 329 323 321 319 320 315 316 318 318 320 320 321 322 322 322 322 322 322 321 321
307 307 308 313 314 316 318 318 319 320 321 322 323 324 324 324 323 322 322 322 323 323 323 323 323 321 324 327 325 322 321 321 317 316 318 316 316 318 322 323 322 321 321 322 321 321 321
307 306 306 306 307 310 312 314 316 317 318 319 319 319 321 323 323 323 323 323 323 323 323 323 322 320 326 324 323 322 322 322 322 316 315 315 314 317 319 321 320 321 322 325 324 322 321
306 306 306 306 305 305 306 308 309 311 311 314 316 317 317 318 319 322 323 323 323 323 323 323 321 321 327 322 322 319 317 319 320 316 316 312 314 318 320 321 325 325 326 326 325 322 322
305 306 305 304 305 306 304 304 305 307 308 309 310 311 313 314 316 317 321 322 322 322 324 318 319 322 324 326 320 317 316 317 318 318 317 315 317 320 321 324 328 328 327 326 328 321 320
306 307 306 304 304 304 305 306 305 302 304 309 310 312 312 312 312 315 320 321 324 327 326 326 325 326 324 321 318 321 318 318 317 318 321 319 319 322 323 323 324 325 326 328 327 322 319
306 305 305 304 304 303 303 304 305 306 302 306 310 312 313 312 313 316 320 324 324 314 325 323 324 324 324 324 325 324 319 319 320 320 322 321 320 321 322 322 322 323 324 325 326 320 315
301 302 304 304 303 302 302 303 303 304 305 305 311 312 313 312 313 316 320 321 320 318 325 320 320 322 323 322 324 324 323 322 322 323 322 325 323 317 320 320 319 321 323 324 325 321 315
300 299 299 301 302 302 301 301 303 302 304 305 311 314 313 312 313 316 317 318 318 319 319 314 317 321 321 321 324 322 321 323 324 321 320 322 323 321 319 319 319 321 321 320 321 321 320
301 300 299 300 301 301 301 300 299 302 302 304 310 312 313 310 316 316 318 319 318 322 316 313 316 318 320 322 320 321 319 321 324 322 318 321 321 320 320 320 319 319 317 317 319 320 320
301 300 299 300 300 302 302 301 299 300 301 303 306 310 311 313 313 316 317 317 319 317 318 315 319 319 319 320 321 319 321 321 322 322 319 318 319 318 320 319 318 317 315 315 316 318 320
299 299 298 297 299 300 301 300 298 299 300 302 303 308 309 312 311 313 316 318 316 317 311 312 316 318 320 321 322 321 320 323 323 323 322 320 318 317 315 317 317 315 317 321 321 321 320
298 298 298 298 299 299 299 299 298 299 301 302 303 305 308 310 312 312 314 317 316 309 310 313 317 317 320 318 320 322 319 322 321 319 320 322 321 318 315 316 318 317 318 322 324 324 323
297 296 298 298 298 299 299 299 299 299 302 302 304 305 307 309 308 308 314 315 314 307 308 309 310 317 317 318 320 322 322 320 321 319 320 320 321 319 317 314 317 319 318 318 321 320 321
298 298 297 298 297 298 298 298 298 298 299 301 304 305 305 308 308 309 310 313 312 310 310 310 313 315 314 317 320 322 322 319 319 320 319 318 322 317 315 312 314 317 316 318 318 320 322
297 297 297 297 297 297 297 297 298 298 297 300 304 305 305 306 307 308 309 311 310 310 310 310 311 311 316 319 318 322 321 319 318 318 319 318 318 314 311 312 315 314 313 315 317 319 319
296 296 297 296 296 296 297 298 297 298 297 300 303 304 305 306 308 307 309 307 307 308 308 310 313 313 312 313 315 319 322 321 315 314 317 318 318 321 314 314 311 310 314 315 321 318 321
295 295 295 296 297 296 297 297 296 297 297 301 303 303 303 304 307 307 307 307 307 307 307 308 310 312 312 312 316 318 318 318 317 316 315 315 318 324 321 319 311 310 312 312 315 317 316
295 295 296 297 297 297 297 297 297 296 297 299 300 304 304 304 303 304 308 306 306 306 306 307 309 310 312 313 313 315 314 314 312 312 310 311 315 319 321 318 318 318 315 313 313 316 316
295 296 295 294 295 296 296 297 297 296 296 298 301 302 303 305 304 305 306 305 306 306 305 306 307 310 313 313 313 314 313 314 312 310 311 312 315 315 315 314 314 314 317 317 314 312 313
295 295 294 294 294 295 295 296 296 296 296 298 300 301 301 302 302 303 305 305 303 304 307 305 306 306 309 312 313 314 312 314 314 313 315 312 318 315 315 315 316 316 316 316 316 316 314
295 295 294 294 294 295 295 296 295 296 296 298 298 299 301 302 301 302 303 303 304 305 307 306 306 307 306 307 309 311 312 313 314 314 314 314 315 316 315 313 314 320 320 318 317 316 316
295 295 295 294 295 296 295 295 295 295 296 297 298 299 300 300 301 301 301 301 301 303 304 304 305 306 306 307 308 308 310 313 312 312 312 314 315 316 316 312 319 313 312 313 314 315 315
295 295 296 295 295 295 296 296 296 295 295 297 297 298 299 300 300 299 300 302 301 303 303 304 304 305 306 308 308 308 310 311 313 313 312 311 313 315 314 316 314 314 313 313 313 313 312
295 295 296 295 295 295 295 295 295 295 295 297 296 297 298 298 300 299 301 300 304 304 304 304 304 305 306 307 307 307 308 308 309 308 309 311 312 314 312 312 314 312 310 311 310 313 311
296 296 296 295 295 295 294 294 294 294 295 296 294 295 296 298 299 299 299 302 303 303 304 304 304 306 305 308 309 309 306 305 309 308 311 311 312 312 314 312 310 308 308 309 310 313 312
295 295 295 294 295 294 293 293 293 294 294 296 294 294 294 300 299 300 298 301 303 304 305 303 305 305 306 306 305 306 308 306 307 306 309 312 311 312 312 314 313 309 310 311 312 311 311
295 294 294 294 294 293 293 294 293 293 295 294 294 295 294 295 299 298 298 298 299 301 303 304 305 304 305 308 306 303 304 307 306 306 305 311 313 314 310 309 309 312 313 310 309 309 309